Weather Roundup
Issued by NWS Chicago, IL

Home | Current Version | Previous Version | Graphics & Text | Print | Product List | Glossary On
Versions: 1 2 3 4 5 6 7 8 9 10 11 12 13 14 15 16 17 18 19 20 21 22 23 24 25 26 27 28 29 30 31 32 33 34 35 36 37 38 39 40 41 42 43 44 45 46 47 48 49 50
000
NZUS59 KLOT 021008
HRRLOT

CHICAGO AREA WEATHER ROUNDUP
NATIONAL WEATHER SERVICE CHICAGO/ROMEOVILLE IL
500 AM CDT SUN AUG 02 2015

NOTE: "FAIR" INDICATES FEW OR NO CLOUDS BELOW 12,000 FEET WITH NO
SIGNIFICANT WEATHER AND/OR OBSTRUCTIONS TO VISIBILITY.

* THESE STATIONS ARE NOT UNDER NWS QUALITY CONTROL. THEY ALSO MAY NOT
  REPORT WEATHER SUCH AS PRECIPITATION OR FOG.

ILZ005-006-012>014-019>023-021100-
NORTHEAST ILLINOIS

CITY           SKY/WX    TMP DP  RH WIND       PRES   REMARKS
OHARE          PTCLDY    72  67  84 W10       29.86S
MIDWAY         PTCLDY    73  66  78 SW8       29.87S
AURORA         PTCLDY    70  65  84 SW9       29.87F
LANSING*       CLEAR     65  63  93 SW5       29.89S
JOLIET*        CLEAR     69  67  93 S3        29.88S
WAUKEGAN       MOCLDY    73  68  84 SW9       29.83F
DUPAGE AIRPORT PTCLDY    69  65  86 SW7       29.87S
WHEELING       PTCLDY    72  66  81 SW6       29.87S
KANKAKEE*      CLEAR     65  63  95 CALM      29.91S
MORRIS*        CLEAR     69  66  90 SW6       29.87F
LEWIS AIRPORT* CLEAR     69  65  88 W8        29.88S
NORTHERLY IS     N/A     74  65  73 SW3         N/A
$$

WIZ051-052-058>065-066-070>072-021100-
SOUTHEAST WISCONSIN

CITY           SKY/WX    TMP DP  RH WIND       PRES   REMARKS
MILWAUKEE      MOCLDY    72  65  78 SW10      29.81S
KENOSHA*       MOCLDY    73  68  84 SW9       29.83F
RACINE*        PTCLDY    71  65  81 SW7       29.84S
BURLINGTON     MOCLDY    69  66  90 SW8       29.83S
WAUKESHA       MOCLDY    68  64  88 SW9       29.83S
WEST BEND      MOCLDY    72  64  78 SW12      29.79F
$$

INZ001>003-010>013-019-020-021100-
NORTHWEST INDIANA

CITY           SKY/WX    TMP DP  RH WIND       PRES   REMARKS
GARY*          PTCLDY    72  66  83 SW7       29.89S
MICHIGAN CITY* NOT AVBL
RENSSELAER*    NOT AVBL
VALPARAISO     CLEAR     66  62  87 SW6       29.91S
$$

LMZ740>746-021100-
SOUTHERN LAKE MICHIGAN

STATION/POSITION TIME  SKY/WX   TEMP WIND        PRES    VSBY
                                AIR  DIR/SP/G
                 (UTC)          (F)  (DEG/KT/KT) (MB)    (MI)
HARRISON CRIB    0900            75  250/ 17/ 21   N/A
BURNHAM HARBOR   1000            73  220/  4/ 12   N/A
CALUMET HARBOR   0900            72  220/  4/  7   N/A
BURNS HARBOR     0900            72  210/  9/ 14 1012.5F
MICHIGAN CITY    0900            71  190/ 12/ 14   N/A
$$

ABBREVIATIONS USED IN REMARKS
   TC - TEMPERATURE IN CELSIUS
  WCI - WIND CHILL INDEX
   HX - HEAT INDEX
  VSB - VISIBILITY
$$



USA.gov is the U.S. government's official web portal to all federal, state and local government web resources and services.